User: anonymous   Login
Location: College Rock
(37.2713°N, 119.1740°W)
Time: 23:06:44
(UTC+00:00)
Language:

ADEOS - Orbit

View from above orbital plane
View from above orbital plane
View from above satellite
View from above satellite

Ground track
Ground track

The orbit data is extracted from the following two-line orbital elements,

1 24277U 96046A   21018.56195982 -.00000027  00000-0  76503-5 0  9990
2 24277  98.8996   4.1799 0002205  96.8059 263.3373 14.29459747273561
Epoch (UTC): 18 January 2021 13:29:13
Eccentricity: 0.0002205
inclination: 98.8996°
perigee height: 792 km
apogee height: 795 km
right ascension of ascending node: 4.1799°
argument of perigee: 96.8059°
revolutions per day: 14.29459747
mean anomaly at epoch: 263.3373°
orbit number at epoch: 27356

The dashed part of the orbit path shows where the satellite is in the earth's shadow,  

DLR